RH
14 15 14 13 14 14 15 16 16 16 16 19 26 22 28 47 34 12 14 14 17 33 44 51 53 49 50 52 54 57 51 46 50 49 44 38 34 34 34 36 34 28 30 35 35 33 31 30 29 27 27 31 55 86 97 95 87 61 38 38 46 46 42 44 41 29 26 33 35 35 35 33 35 39 38 40 46 45 47 56 57 57 59 55 68 84 61
14 14 13 13 14 15 16 17 15 15 17 20 24 29 45 53 33 19 17 8 20 43 40 39 48 47 43 41 41 45 46 46 43 38 40 38 30 31 34 34 33 33 40 41 34 33 31 26 29 32 28 39 78 103 95 87 75 52 44 51 51 43 35 36 39 35 35 38 36 36 36 33 35 39 40 45 54 59 59 57 57 62 60 57 76 86 57
14 14 14 13 15 16 15 15 14 15 18 19 19 28 40 35 23 30 27 11 25 48 44 42 50 49 37 29 32 34 37 49 51 41 44 49 39 31 33 37 38 41 46 43 40 42 34 26 33 39 31 39 75 100 97 90 78 64 74 82 64 43 33 32 37 42 45 44 41 37 34 33 35 40 47 54 61 64 56 50 59 66 61 60 73 74 51
14 13 14 14 15 16 14 16 15 13 17 20 14 16 25 27 25 30 31 29 36 45 47 45 42 43 38 27 29 32 28 40 56 49 42 50 49 39 38 43 39 35 36 35 36 40 37 34 37 41 36 34 54 86 100 98 90 87 97 93 63 43 41 37 32 36 41 41 38 31 30 36 40 46 56 60 66 67 55 51 57 57 62 70 67 60 55
13 13 15 14 15 16 14 15 16 14 18 18 16 23 32 35 32 25 24 31 33 33 40 42 33 33 35 25 23 32 30 29 42 44 38 49 56 43 38 41 32 26 30 30 31 37 37 37 39 43 47 41 43 70 94 96 94 95 95 83 56 38 40 44 43 43 38 35 35 31 33 40 41 50 61 60 66 73 65 59 54 51 71 80 56 47 59
13 13 15 15 16 16 14 14 15 16 19 17 22 37 41 32 29 35 36 33 30 29 33 42 43 37 37 37 31 33 34 27 30 36 38 49 53 36 26 31 31 30 32 27 28 34 31 33 44 50 55 54 43 49 68 78 81 80 70 64 56 39 36 51 62 57 43 37 38 36 37 42 43 50 55 51 60 72 72 67 55 53 73 75 51 48 58
14 14 16 16 17 16 14 15 13 13 19 19 22 37 46 37 32 43 49 43 44 48 44 46 50 41 39 44 37 32 30 22 26 38 36 35 40 32 19 18 29 41 40 29 29 34 28 30 46 53 55 58 49 42 48 56 64 64 53 58 63 44 38 61 75 67 50 39 38 39 41 45 47 49 47 44 50 59 65 65 55 51 60 56 48 54 56
14 16 16 15 17 16 13 15 14 14 19 19 19 30 41 40 37 41 45 43 50 59 52 42 38 35 36 35 30 33 28 18 29 43 32 20 24 29 21 17 35 52 46 33 31 33 28 25 38 52 53 53 51 45 40 43 57 62 56 64 66 45 46 68 72 60 48 38 38 42 42 44 46 45 42 42 47 51 57 60 55 56 61 53 52 63 58
15 16 16 15 16 15 14 15 15 17 19 17 23 30 30 30 32 34 35 36 43 49 44 35 28 22 22 25 30 35 23 15 28 36 32 28 23 22 22 27 48 62 53 44 38 33 33 30 33 43 42 40 44 42 36 41 56 67 70 72 63 45 48 60 57 49 44 39 40 40 39 48 56 55 48 44 48 51 53 54 53 56 62 62 63 67 56
14 14 13 13 14 13 14 16 17 21 21 18 23 29 29 28 28 32 36 34 38 44 36 31 30 24 25 34 41 40 30 28 31 27 32 47 46 41 39 34 42 50 47 48 44 38 41 44 44 47 44 42 45 43 42 46 54 70 79 74 66 58 49 47 49 48 42 37 37 37 42 51 52 47 43 40 42 45 45 46 45 45 51 61 64 57 46
12 12 10 11 13 12 13 16 19 21 19 19 21 20 23 25 26 41 51 35 33 48 37 22 23 26 38 51 52 50 46 40 37 26 22 41 63 69 55 38 35 37 40 53 60 58 60 61 59 57 54 55 55 53 55 55 58 71 71 64 75 78 56 44 49 48 43 41 38 39 45 45 37 32 33 35 38 42 45 45 43 40 42 48 51 46 44
9 10 10 10 11 11 12 14 17 17 15 20 22 15 14 15 16 41 59 39 34 49 37 27 40 45 46 51 51 53 51 47 55 49 27 36 67 72 53 36 30 35 53 73 74 66 62 61 59 56 53 58 63 61 61 61 64 67 59 57 74 73 54 51 56 51 45 45 45 47 47 41 37 35 32 33 37 38 42 44 42 42 43 44 49 51 50
8 8 8 9 9 10 11 11 14 15 14 18 21 16 14 12 14 42 64 45 34 41 33 42 77 82 61 51 53 60 61 65 78 72 47 47 61 62 59 51 38 46 71 77 65 53 46 44 47 47 45 47 53 56 59 63 66 65 59 58 61 54 48 52 54 48 45 46 51 53 44 36 40 41 36 37 40 40 47 55 48 41 44 48 53 55 52
6 6 7 8 8 9 10 11 13 14 15 17 19 15 12 12 17 40 57 42 33 46 45 42 64 75 60 50 52 55 54 54 56 54 52 58 57 57 73 80 70 75 80 62 46 42 35 32 35 38 37 37 38 42 47 57 67 66 61 57 52 47 46 44 43 48 49 49 51 47 39 37 41 42 36 36 40 39 49 64 57 41 43 51 54 55 55
6 7 7 7 8 9 9 11 12 14 16 17 17 14 12 13 13 20 40 46 38 42 46 39 42 52 54 51 49 45 43 42 38 37 47 58 58 64 85 98 93 84 65 45 39 37 31 31 33 32 32 33 33 33 32 41 59 64 57 52 48 47 43 38 42 50 48 47 51 52 51 45 37 35 33 33 37 36 42 61 63 45 42 50 53 56 58
8 8 8 7 9 9 9 11 11 13 15 15 15 14 11 14 13 8 26 48 36 26 43 56 54 51 50 49 46 39 39 41 38 37 39 42 51 67 85 96 91 70 47 39 42 39 34 34 34 32 32 32 34 35 30 30 44 55 54 48 44 44 44 41 43 47 46 48 52 56 60 49 33 31 34 33 36 37 45 64 64 46 41 48 52 57 56
8 9 9 8 10 9 10 13 12 13 16 16 17 17 12 15 15 5 19 50 48 42 69 86 68 45 35 37 39 36 37 39 37 37 37 37 46 62 75 83 81 66 48 40 39 38 36 36 35 32 32 33 33 34 32 30 35 43 47 48 47 47 45 42 43 44 47 53 51 49 49 41 30 32 34 34 38 44 56 66 58 46 46 49 52 56 53
8 8 8 8 9 9 9 12 13 14 17 16 17 18 14 15 14 7 25 57 54 49 82 102 78 50 47 51 47 39 38 38 31 32 37 39 44 56 65 67 65 59 50 43 41 38 34 35 38 33 29 34 36 33 32 34 35 37 38 41 52 58 50 45 47 48 51 57 55 47 41 34 31 34 34 36 44 52 58 57 48 45 47 47 51 54 50
8 8 9 8 8 9 9 10 12 14 16 15 16 17 15 17 16 10 25 55 57 52 83 108 93 77 85 85 67 52 49 46 39 36 35 33 38 49 55 52 48 47 44 39 39 37 32 33 41 38 32 35 37 34 34 34 33 36 39 39 47 56 53 48 51 49 48 55 57 51 44 35 32 34 34 39 50 52 47 41 40 43 45 46 50 52 49
9 8 9 8 8 9 8 9 12 14 16 16 16 17 17 18 18 11 19 51 70 69 83 103 99 94 100 93 74 61 50 39 38 37 32 33 41 43 38 37 39 39 37 35 36 36 33 34 39 40 36 34 34 33 36 38 33 33 40 42 42 46 45 42 46 46 45 53 58 54 45 37 32 35 39 42 44 40 35 36 39 42 45 47 50 50 50
9 9 9 8 8 9 8 9 11 12 16 18 15 17 21 20 20 18 14 28 52 61 72 92 99 97 99 97 93 89 73 57 53 47 38 44 50 41 32 37 40 36 33 36 37 36 35 37 41 43 38 35 35 35 38 41 38 37 43 46 45 47 43 37 41 45 44 47 48 40 35 34 33 33 35 34 33 34 36 39 40 42 46 49 50 49 50
9 9 10 9 8 9 8 9 11 11 13 16 14 16 22 22 23 22 14 23 55 75 80 90 95 94 97 98 96 98 94 89 88 76 58 51 51 45 39 37 37 37 35 34 35 37 39 41 43 43 40 37 38 40 40 38 37 42 47 43 39 42 39 33 39 45 42 38 36 32 32 35 35 32 31 31 34 39 41 41 42 44 46 49 50 50 49
10 9 10 9 8 9 8 8 11 11 11 14 13 13 19 22 22 20 18 36 71 88 86 89 90 87 92 96 93 93 93 92 96 95 81 61 48 46 45 41 42 47 46 40 37 37 38 42 40 36 37 38 38 41 42 41 41 45 45 37 33 36 36 34 38 41 38 32 30 31 32 31 32 34 35 35 38 41 43 44 45 46 47 49 50 49 48
10 10 10 10 9 10 9 9 10 10 11 13 13 13 16 18 20 18 20 37 60 66 66 72 73 72 81 89 89 91 91 89 92 96 91 77 58 42 41 51 56 52 50 53 51 42 40 46 44 36 36 41 40 37 37 40 43 43 40 37 36 36 34 35 36 38 38 34 29 29 31 29 30 35 39 41 42 41 43 45 46 46 49 51 50 48 47
11 10 10 11 11 10 11 11 11 11 12 12 12 13 15 16 17 17 19 31 45 48 47 51 60 76 89 89 86 90 91 89 93 94 92 91 78 52 48 66 69 57 55 61 54 41 39 45 46 41 40 44 42 35 34 37 38 37 38 39 39 37 36 37 36 35 36 32 28 29 31 31 32 35 36 39 41 42 44 47 48 50 52 52 49 48 45
11 11 10 11 11 11 12 13 13 13 14 14 13 13 13 16 17 16 16 23 35 44 47 47 55 72 82 80 81 88 90 92 98 98 94 95 90 76 76 84 75 60 60 62 53 45 43 42 42 41 39 39 39 36 36 38 37 37 40 38 37 40 41 37 35 36 36 33 30 30 31 31 34 35 35 36 38 43 46 48 51 53 53 51 49 47 43
11 12 12 12 11 12 13 13 14 15 15 14 15 14 15 17 18 16 16 18 21 29 39 45 52 62 72 77 80 82 85 92 97 97 96 97 94 90 89 84 68 56 54 55 52 50 47 43 44 45 44 44 45 45 47 47 45 48 48 42 39 43 42 37 38 43 41 35 29 26 26 26 28 33 37 38 38 42 46 49 53 55 52 50 48 46 43
12 13 13 13 13 15 14 14 15 16 15 15 15 15 15 17 16 16 17 16 17 26 41 51 54 56 60 66 70 71 74 78 82 85 90 93 93 95 91 80 68 59 52 49 50 49 45 45 48 51 54 52 47 48 53 55 56 56 49 40 37 37 34 34 38 39 34 28 26 26 25 24 26 32 37 40 42 44 47 49 51 50 49 49 47 45 41
13 15 14 14 15 16 15 16 16 15 17 18 15 12 14 15 15 17 17 14 17 34 52 55 50 49 53 59 64 66 66 67 70 73 77 80 85 90 87 77 68 62 55 51 51 47 46 50 52 53 55 51 44 44 47 50 54 50 39 33 36 34 30 31 31 27 25 26 28 29 27 25 30 36 37 40 46 48 47 48 49 49 49 48 46 44 39
13 14 14 14 14 13 13 15 14 14 17 16 15 23 30 24 15 16 20 17 14 27 48 52 43 45 57 63 62 61 63 66 68 67 67 71 75 77 77 73 70 67 59 53 51 49 51 59 63 61 60 56 49 45 45 48 51 44 30 29 37 35 31 33 30 26 27 31 33 33 30 29 35 41 41 44 50 49 48 49 49 49 49 48 47 46 41
13 13 13 12 12 11 11 12 12 14 16 13 15 29 38 28 16 15 20 18 12 22 45 53 41 39 53 60 57 58 62 64 66 66 67 69 68 69 72 71 69 67 59 53 56 62 61 60 60 61 64 64 57 49 46 50 53 45 31 28 34 34 32 34 34 31 31 34 39 40 37 37 44 46 44 47 51 52 51 51 51 52 52 51 49 46 42
13 13 13 12 12 12 12 12 12 13 14 13 15 21 24 21 18 16 16 15 13 22 41 47 36 39 52 52 48 56 63 59 56 59 61 60 59 61 65 65 67 72 69 62 62 65 62 60 62 64 66 66 61 56 55 55 52 43 31 26 29 33 33 32 33 32 32 34 41 42 38 38 43 42 40 44 51 54 53 52 52 55 56 55 54 51 47
12 13 13 12 13 13 13 14 13 12 12 14 16 17 18 17 17 16 15 15 14 21 37 43 36 37 43 40 37 47 57 55 51 50 51 55 56 54 55 57 60 65 66 62 57 56 59 64 66 64 61 58 57 61 64 59 47 37 28 26 28 32 33 33 34 34 34 35 39 37 32 33 39 40 41 45 51 55 56 53 53 57 58 58 57 54 52
13 14 13 12 13 13 12 13 13 12 12 14 15 16 18 16 15 15 15 15 16 23 37 47 43 35 35 39 43 46 48 51 52 47 47 54 55 49 47 51 54 53 53 53 52 53 59 62 61 59 58 57 59 64 62 49 38 33 32 31 30 31 35 38 37 36 37 38 39 36 34 40 48 50 51 52 52 53 57 57 57 60 61 58 55 52 51
13 13 13 13 14 14 13 13 12 12 14 15 16 17 16 14 16 17 14 13 20 29 39 49 50 39 32 37 46 46 45 49 52 50 51 55 54 50 48 50 50 49 48 50 53 54 54 55 56 56 56 58 64 66 56 41 34 34 34 33 32 34 38 39 36 34 36 38 40 41 43 49 55 55 54 57 56 55 58 59 59 61 62 58 52 49 48
13 13 14 15 14 13 14 14 12 13 15 15 15 16 16 15 16 17 15 13 19 30 41 50 51 41 30 28 36 42 46 49 52 54 57 56 52 51 51 47 47 51 51 51 56 56 52 51 52 52 55 60 61 54 44 36 35 35 32 30 32 34 34 31 29 32 37 41 46 48 49 55 59 57 56 60 60 59 60 61 61 64 65 60 52 48 48
12 13 15 15 14 15 15 13 14 15 16 16 16 15 15 15 13 14 18 19 19 28 43 49 46 43 39 34 38 45 50 51 50 48 52 57 57 54 51 50 57 65 60 50 49 52 51 51 52 52 56 57 48 36 32 33 33 32 29 27 28 31 31 31 33 38 43 50 55 55 56 60 62 61 61 63 64 64 65 64 63 65 67 65 59 54 52
13 14 13 13 17 23 21 15 14 16 14 15 17 14 13 19 22 23 32 36 30 33 46 48 44 49 53 46 43 47 48 49 49 45 45 56 61 56 50 50 58 63 56 45 45 50 51 53 58 61 61 54 42 34 34 33 30 30 29 27 27 30 31 33 38 41 43 45 46 48 56 64 65 64 64 66 65 65 65 63 61 63 65 66 62 55 54
13 13 12 12 19 25 22 14 13 16 15 15 16 14 16 26 27 24 34 45 40 38 47 48 47 55 55 43 42 52 52 48 48 46 44 52 58 51 44 46 52 54 49 43 44 46 47 50 57 62 61 53 40 32 30 30 29 30 29 28 29 30 30 34 38 38 36 33 29 31 42 51 54 55 60 64 65 65 64 63 63 64 65 65 60 54 55
13 12 14 16 18 17 16 13 13 15 15 16 19 21 25 30 30 29 37 42 34 32 42 48 52 61 60 45 43 53 55 50 50 48 45 50 56 51 43 44 49 50 47 46 47 48 46 47 51 53 51 43 33 28 29 32 32 31 30 31 31 31 33 35 37 36 35 32 28 30 37 43 46 48 52 59 64 65 64 65 66 65 66 66 62 56 52
12 11 13 16 14 12 14 16 14 14 16 18 22 26 28 30 35 41 42 35 28 36 50 52 48 53 60 57 53 53 53 58 66 62 49 49 57 56 48 45 46 45 44 48 52 50 45 45 50 53 47 35 27 27 33 36 34 32 33 35 36 37 37 37 38 39 40 39 37 37 40 48 54 54 52 56 63 65 65 67 68 68 68 66 62 55 48
13 13 13 14 15 14 15 16 15 17 21 23 25 29 32 35 38 38 32 28 30 38 45 46 45 51 58 60 58 54 56 69 77 64 47 49 61 61 51 49 49 46 45 50 52 50 48 50 54 53 43 30 24 27 31 31 31 31 32 34 39 43 43 42 42 42 42 43 46 44 43 51 61 61 56 57 64 67 67 70 72 72 70 63 57 52 48
13 13 12 12 15 16 18 20 22 26 32 36 35 31 32 37 42 38 36 42 50 48 42 44 52 56 56 55 56 58 65 78 81 65 49 53 62 58 51 52 54 49 46 50 53 53 55 58 54 44 31 24 25 31 33 31 33 36 36 37 40 44 46 48 49 48 47 49 53 53 52 56 62 62 58 59 63 67 68 66 66 66 65 61 58 53 47
12 14 17 19 21 22 20 21 24 26 30 37 38 32 31 40 46 42 38 42 46 46 46 49 46 41 42 53 64 70 73 74 71 61 53 53 57 55 51 52 55 50 46 48 52 54 57 59 53 39 29 26 27 29 29 30 33 37 39 39 40 44 50 55 57 57 57 57 58 60 63 64 65 66 67 66 65 67 67 64 60 58 57 56 56 52 45
13 23 31 30 27 26 23 25 31 31 27 32 41 42 40 42 44 44 48 51 45 42 52 59 52 43 46 54 61 68 70 62 54 54 56 52 49 50 49 48 50 53 51 51 54 55 53 51 45 36 30 29 27 25 27 31 33 36 39 40 38 41 49 57 60 61 62 61 60 63 68 69 69 72 75 74 71 68 67 65 62 56 52 54 57 55 49
18 31 36 29 25 29 29 28 31 30 28 39 53 54 48 45 45 51 66 73 62 53 61 68 59 50 53 54 52 58 67 60 47 49 57 52 43 47 50 45 43 48 52 54 57 56 49 43 36 29 26 28 29 30 35 39 39 40 43 41 36 35 42 50 57 60 60 58 60 64 68 69 70 72 74 76 77 76 72 69 65 57 51 53 52 46 44
22 34 34 25 27 34 32 30 33 33 35 46 58 62 64 65 62 63 74 80 71 66 75 79 65 51 53 55 51 55 65 63 49 46 53 51 44 49 54 49 45 50 53 52 53 54 48 37 30 26 28 34 39 41 42 42 42 43 45 43 40 39 40 44 51 56 57 58 62 66 67 67 68 71 74 77 80 80 78 76 71 62 54 49 40 33 38
24 30 27 24 29 34 33 35 42 46 51 63 76 86 90 81 64 61 77 86 77 68 68 65 53 46 50 55 52 51 58 59 52 48 51 51 47 48 53 53 52 55 54 49 47 44 35 28 28 35 42 47 48 46 43 41 42 45 46 45 45 44 42 43 48 51 52 57 65 69 68 67 68 72 76 79 80 80 81 81 77 69 59 52 44 42 48
25 28 28 30 38 44 46 44 42 47 62 79 88 91 91 80 64 65 82 89 83 76 73 64 52 46 48 54 56 54 54 55 53 51 54 54 50 49 53 56 55 53 51 50 47 38 27 27 39 51 56 56 54 50 45 43 45 50 52 51 50 48 48 49 51 50 50 57 64 67 67 68 70 74 78 82 82 79 79 83 84 78 67 57 50 48 50
26 30 32 32 37 48 53 45 35 41 60 74 75 74 78 79 73 71 79 86 87 82 75 68 62 56 53 54 56 53 53 58 60 57 56 58 57 53 54 56 56 52 47 43 40 34 31 35 45 52 55 56 54 50 46 47 53 58 59 57 56 56 56 56 55 55 55 57 60 63 66 69 71 74 76 78 77 76 79 84 87 84 75 63 53 46 45
31 34 36 35 42 54 53 39 32 38 49 57 63 69 73 73 70 68 72 78 76 61 49 52 60 60 55 55 53 48 47 55 59 56 56 59 61 59 57 55 50 44 37 32 31 34 36 39 43 48 52 53 52 51 52 57 61 63 62 60 60 61 61 60 60 61 61 60 60 64 67 68 68 69 70 71 74 80 84 86 88 87 82 73 62 50 42
36 35 37 46 64 73 59 40 40 51 53 56 67 74 68 63 69 74 71 65 58 48 47 56 61 55 51 56 57 51 47 50 54 55 57 58 57 57 55 47 38 33 32 34 37 39 40 41 46 52 55 55 54 56 60 62 62 60 59 60 61 62 64 64 63 63 64 65 65 65 66 65 65 68 74 78 83 88 88 85 86 89 88 81 70 58 45
Wind_Speed
4 4 4 4 4 4 3 2 4 6 8 6 2 1 1 1 2 4 11 2 6 6 4 0 3 3 1 1 1 2 1 2 1 1 0 0 0 1 1 0 0 1 1 1 2 2 1 1 0 1 1 1 3 3 3 2 2 1 0 2 1 1 1 2 5 6 1 5 5 3 5 6 5 4 3 2 1 1 1 3 3 5 7 7 8 10 7
5 5 5 5 4 2 2 4 4 6 6 3 0 2 1 1 2 3 10 2 4 1 2 2 1 2 2 2 2 1 1 1 1 1 0 0 1 2 2 1 0 1 1 1 1 1 1 2 0 0 1 1 4 4 3 2 1 1 1 1 0 1 1 2 5 4 1 1 1 1 2 2 1 3 4 2 3 2 1 1 0 3 6 7 9 10 8
6 5 5 5 3 2 3 4 5 5 5 2 1 2 2 1 1 1 9 10 4 2 1 3 4 3 2 4 2 1 2 1 1 0 1 1 0 1 2 0 1 2 1 0 1 0 1 1 0 1 0 1 3 3 1 1 1 1 3 2 1 1 1 2 3 5 5 5 5 4 5 5 2 3 4 2 3 3 1 2 2 3 6 7 9 12 15
6 6 6 5 3 3 5 5 5 3 3 1 3 4 2 1 1 1 4 8 7 2 1 2 4 4 3 3 2 1 2 1 1 1 1 1 1 1 2 1 1 2 1 2 2 1 1 1 1 1 2 1 2 2 1 0 0 1 2 1 1 0 1 1 1 2 5 7 10 11 9 8 7 4 1 3 3 2 1 3 5 5 9 10 10 14 21
7 7 5 4 4 4 4 4 3 1 1 1 3 5 3 1 1 1 1 2 3 3 2 2 3 3 2 2 2 2 2 2 1 1 0 1 1 1 1 1 2 2 2 2 2 1 0 1 1 2 1 1 0 1 1 1 2 2 1 1 0 0 1 2 2 6 9 11 15 15 11 10 11 8 3 5 5 4 4 5 7 6 8 10 11 15 23
8 7 5 5 4 4 3 1 1 2 2 1 2 3 3 1 2 0 1 0 1 2 1 1 3 3 1 1 2 3 3 3 2 1 1 1 1 1 1 2 3 2 2 2 2 2 1 1 2 2 1 1 0 2 2 1 2 2 1 0 0 1 1 1 1 7 11 13 15 14 11 9 9 8 7 6 6 7 7 8 8 6 6 12 17 21 23
7 7 6 5 5 5 4 4 3 3 3 2 2 2 2 1 2 1 2 1 1 1 1 2 3 4 2 1 1 3 4 4 1 1 2 1 2 2 2 3 3 2 2 1 1 2 2 2 2 2 3 1 1 2 2 2 2 1 1 1 1 1 1 1 1 7 11 12 11 9 7 7 8 8 9 8 7 8 8 9 11 11 14 19 21 23 23
7 7 7 6 7 7 6 6 5 4 4 4 2 3 1 1 2 1 1 3 2 1 1 1 2 2 1 1 1 2 4 4 2 1 2 2 3 3 3 3 3 1 2 3 2 3 3 2 3 4 4 2 2 3 2 2 2 1 1 1 1 1 1 2 1 5 7 5 3 3 5 7 10 9 8 8 7 8 9 10 10 12 15 18 19 20 18
8 8 8 8 8 8 7 7 6 5 6 5 2 2 2 2 3 4 4 3 1 1 1 0 1 2 1 1 2 2 4 5 4 2 1 1 3 4 3 5 4 2 2 4 4 4 3 2 2 5 4 1 1 2 1 3 4 2 1 1 0 1 1 1 1 5 4 3 1 4 3 3 7 9 9 10 9 7 8 9 10 11 13 16 16 14 12
9 9 9 9 8 8 8 7 7 6 7 5 2 3 5 4 3 3 3 3 1 1 1 0 0 1 0 1 2 2 2 3 3 2 1 1 1 1 2 5 4 1 3 5 3 1 1 1 2 2 2 2 2 1 1 3 3 2 3 0 1 0 2 1 1 5 3 1 5 8 1 1 3 4 6 11 10 9 10 10 11 12 12 11 10 10 10
9 9 8 8 7 7 7 8 8 7 7 6 3 4 8 6 3 1 3 3 0 1 0 1 0 1 1 2 2 1 2 3 2 1 2 2 1 0 2 4 2 1 2 2 2 5 5 4 4 3 4 4 3 2 3 3 2 2 3 1 1 1 1 0 1 3 4 5 10 7 2 2 3 2 5 9 8 8 11 12 14 14 11 10 11 12 11
6 6 6 6 6 7 7 8 9 7 7 7 5 5 9 8 4 2 2 3 1 0 0 1 0 1 1 2 2 1 3 3 1 1 1 3 2 1 2 2 1 1 3 4 5 6 6 5 4 4 4 4 4 3 3 4 2 1 1 2 3 2 1 1 1 2 4 6 8 5 1 2 1 4 5 7 7 9 14 18 18 15 12 12 13 13 12
3 4 5 5 5 5 6 6 8 8 7 8 6 6 10 9 4 3 2 3 2 2 1 0 1 1 1 3 4 2 1 2 1 2 1 3 2 2 1 1 0 2 6 7 6 4 4 3 2 1 2 2 2 2 3 3 3 1 1 2 2 2 1 1 1 2 3 4 4 3 5 2 4 4 4 5 7 9 12 15 13 10 9 10 11 12 12
2 2 2 3 3 4 4 4 6 6 7 8 7 7 11 10 3 2 3 3 1 1 1 1 1 2 3 4 5 4 2 2 1 1 1 2 1 2 1 1 1 4 7 7 4 1 1 1 1 1 1 1 0 1 2 3 2 1 1 1 2 2 2 1 1 1 1 4 2 4 7 4 3 4 4 5 5 6 6 8 7 6 7 7 8 12 14
5 4 3 2 2 2 3 3 4 4 4 7 8 8 11 10 4 1 3 4 2 1 2 2 4 6 5 4 4 4 3 1 0 1 1 1 2 3 2 2 2 5 4 2 1 1 0 0 1 1 1 1 1 1 2 3 2 3 2 1 1 1 2 2 2 0 1 3 4 3 5 4 1 3 5 5 4 3 1 5 6 4 7 6 7 12 14
6 5 4 4 3 2 2 2 2 2 3 5 7 8 10 9 5 3 5 4 3 2 1 0 3 5 5 2 1 2 2 2 2 1 0 0 2 3 3 2 3 4 2 1 1 1 1 1 1 1 1 2 1 1 1 2 1 2 2 1 2 1 1 1 1 2 1 1 3 3 3 3 1 5 6 5 3 4 4 3 4 4 7 6 6 10 12
8 7 6 5 4 3 3 3 2 3 4 5 6 7 8 8 6 4 5 4 3 1 1 1 2 3 4 2 1 1 2 2 1 1 1 1 2 3 3 2 2 2 1 0 1 1 1 1 1 1 1 1 1 2 1 0 1 1 1 1 2 2 0 1 2 2 2 2 2 3 5 5 3 7 6 4 6 8 3 5 4 4 6 5 5 8 10
10 9 7 6 5 4 3 3 2 2 2 4 5 5 6 5 6 5 4 4 3 2 1 1 1 1 1 1 1 2 2 2 2 1 1 1 1 3 4 3 2 1 2 2 0 1 1 1 1 1 1 1 1 2 1 1 2 1 2 2 2 2 1 1 2 2 3 3 3 4 5 4 4 7 6 7 9 6 3 7 4 1 2 3 3 7 9
11 10 9 8 6 5 4 3 2 2 3 5 4 2 2 3 5 6 4 3 2 2 1 0 1 1 1 1 1 2 1 1 1 1 2 1 1 3 4 2 1 1 1 2 1 1 1 1 1 1 1 1 1 1 1 1 2 1 2 1 1 1 2 1 1 1 2 3 3 5 5 2 5 7 6 7 4 3 5 4 1 2 4 5 4 6 7
11 10 10 9 7 6 5 4 4 3 4 4 2 1 3 4 3 3 3 4 4 4 2 0 1 2 2 2 1 1 0 0 1 1 2 1 2 3 3 1 1 2 2 2 1 1 1 1 1 1 2 1 1 1 1 2 2 1 1 2 2 2 1 2 2 2 2 1 2 4 5 1 8 8 5 4 5 5 4 3 2 2 4 6 6 6 5
12 11 11 10 9 8 6 6 5 3 4 3 1 2 6 6 4 3 4 8 8 3 1 1 2 3 3 3 2 2 1 1 1 1 1 1 1 2 2 1 2 2 2 2 1 1 1 1 1 1 1 0 1 1 1 2 2 1 1 1 2 4 3 2 2 3 2 2 3 2 2 2 9 7 3 5 5 2 2 3 4 3 3 4 5 5 4
13 13 12 11 11 10 9 7 6 3 3 2 2 3 8 12 14 10 8 12 16 11 6 6 7 6 6 5 4 3 2 1 2 1 1 1 0 1 0 1 2 1 1 1 1 0 1 2 1 1 1 1 1 1 1 2 2 1 1 2 3 4 3 1 2 3 3 4 6 3 1 3 8 8 7 6 4 2 2 4 5 5 3 3 4 5 4
13 13 13 13 12 12 11 11 9 7 5 3 1 3 10 15 15 13 13 19 21 14 9 8 7 6 6 5 5 5 3 2 2 1 1 1 1 1 1 1 1 1 1 1 1 0 2 2 1 1 1 2 2 1 1 2 2 1 2 4 4 2 2 0 2 2 4 9 11 9 8 8 7 7 6 5 4 4 5 6 6 5 4 3 4 5 5
13 13 14 13 14 14 14 14 14 12 10 8 4 6 14 18 16 14 15 14 10 5 4 4 3 2 2 2 4 5 4 2 2 1 0 0 1 1 1 1 1 0 1 1 0 1 2 1 0 0 1 1 2 2 2 3 3 2 1 3 4 2 4 4 4 1 2 6 6 6 8 10 6 4 4 5 6 6 6 6 7 5 5 5 5 5 5
13 13 13 13 13 14 14 16 16 16 15 13 10 11 15 16 12 8 7 6 4 4 3 2 1 1 1 2 3 4 3 2 1 1 1 1 1 1 0 1 2 1 1 2 2 1 1 1 1 1 2 2 2 2 1 1 2 2 2 4 2 2 4 5 6 6 7 8 7 6 8 8 6 6 6 5 7 8 9 8 7 5 5 5 6 5 5
13 12 12 12 13 14 15 16 15 14 13 11 10 11 13 13 11 7 8 10 8 4 3 2 0 1 1 2 3 4 3 3 2 1 0 0 1 2 2 2 2 3 4 3 1 1 1 1 1 1 1 1 1 1 1 1 1 1 4 4 2 4 4 4 4 6 9 12 12 10 10 9 8 9 8 7 7 8 9 8 7 7 6 6 6 7 6
13 12 11 12 13 14 15 16 16 15 12 8 7 7 9 11 10 7 6 6 4 2 2 2 0 1 2 3 4 4 3 3 2 1 1 0 2 2 3 3 2 2 2 2 1 1 2 1 0 1 1 1 1 1 1 1 1 2 5 3 4 4 5 4 2 4 7 8 7 4 5 8 6 6 8 9 8 8 9 9 8 8 8 7 6 6 7
13 12 10 9 9 9 9 10 12 13 12 10 9 10 11 11 11 8 4 2 2 2 3 2 1 2 3 2 4 5 3 3 3 2 1 1 2 3 3 3 1 1 1 1 1 1 1 1 1 1 1 0 1 1 1 1 0 4 6 6 7 8 7 7 6 6 7 5 4 5 4 8 5 3 6 8 8 8 9 10 9 9 8 7 7 6 7
12 10 7 5 5 5 5 4 2 2 4 5 7 9 12 14 14 13 10 8 8 9 6 2 2 2 1 1 4 5 3 3 3 3 3 3 2 3 3 2 1 1 1 1 0 1 1 1 1 1 0 1 1 1 1 1 2 5 5 7 10 10 9 9 9 8 7 5 2 5 6 6 2 3 6 7 9 10 10 9 9 9 8 8 8 8 7
12 10 9 8 8 7 6 4 4 5 3 2 1 3 6 8 10 11 10 8 8 9 6 2 2 1 1 1 2 4 3 2 2 3 4 4 3 3 3 3 2 2 1 1 0 1 0 0 1 1 1 1 1 1 1 1 3 6 5 7 9 10 10 9 9 8 7 3 1 3 5 4 1 3 5 7 10 11 9 9 9 9 9 9 9 9 9
11 11 11 12 12 13 13 10 5 1 4 4 2 1 2 2 5 7 7 6 5 6 5 3 2 0 1 1 1 3 3 1 0 1 2 2 2 3 2 2 2 1 1 0 0 0 0 1 1 1 1 1 1 1 1 1 2 7 8 6 7 8 9 9 9 10 8 2 3 1 4 3 3 2 5 8 12 13 10 9 9 10 11 11 10 9 10
9 10 11 12 13 14 16 16 13 8 6 6 6 6 5 3 3 5 6 5 4 4 5 4 2 0 1 1 1 2 2 1 1 1 1 1 1 1 0 1 1 2 1 1 0 1 1 1 1 1 1 1 1 0 1 2 5 10 11 7 5 6 8 8 8 9 8 3 3 3 8 7 9 9 7 7 12 14 12 9 9 10 11 10 9 9 10
7 8 10 10 11 12 13 14 13 12 14 15 15 12 9 6 4 4 4 4 5 5 4 3 2 1 1 0 1 2 2 1 1 0 0 1 1 1 1 0 0 1 2 1 1 1 1 1 1 1 1 1 1 1 2 6 10 14 13 8 4 4 6 7 6 7 7 6 8 10 10 5 6 8 7 6 10 13 12 10 9 9 9 8 8 9 10
4 5 5 6 7 8 9 9 9 11 14 15 14 14 14 11 8 6 3 2 4 6 5 3 2 1 1 1 0 1 2 0 1 1 0 1 2 1 1 0 0 1 1 1 1 1 1 1 1 1 1 1 1 1 5 10 14 13 11 11 8 3 2 5 7 8 9 8 10 12 9 1 3 3 5 6 8 10 10 10 10 10 8 8 9 10 11
3 2 2 2 3 4 4 4 5 7 9 9 9 9 11 11 12 12 9 3 2 2 2 3 2 2 1 2 1 1 2 1 0 0 0 1 2 1 1 0 1 0 0 0 0 1 0 1 1 1 1 1 1 4 7 10 12 10 8 10 7 3 2 5 7 8 8 7 8 9 6 2 3 5 5 7 8 9 9 10 11 10 9 8 9 10 11
1 1 0 1 2 3 2 3 4 3 4 5 5 5 5 5 6 10 11 10 8 4 2 1 2 2 0 1 2 1 2 1 0 0 1 1 1 1 1 0 0 0 1 1 0 1 0 1 1 1 0 1 5 8 8 7 8 8 8 9 6 5 6 7 4 2 2 3 6 7 6 6 9 8 5 7 8 8 9 10 11 11 10 10 9 9 9
1 0 1 2 3 2 2 4 4 4 3 3 3 3 3 2 2 4 6 9 11 9 5 2 1 1 0 1 1 2 3 1 0 1 1 1 1 1 1 1 1 0 1 1 1 0 1 1 0 2 3 5 7 7 5 6 7 8 9 10 6 5 8 7 2 2 1 1 4 6 6 7 9 8 6 8 9 9 11 11 12 12 12 11 9 8 10
3 2 2 2 2 2 2 2 2 2 2 1 1 2 3 3 2 3 3 4 6 7 5 3 2 1 0 1 1 2 2 1 1 1 1 0 1 1 0 0 0 1 1 2 1 1 0 0 0 3 5 7 7 9 10 11 10 9 10 10 8 6 6 5 5 6 4 4 6 7 7 8 10 10 10 11 10 11 12 12 12 13 12 11 11 12 14
3 2 2 2 2 1 0 1 1 0 2 2 1 1 2 4 3 2 2 2 3 3 3 2 1 1 0 0 1 2 2 1 1 1 1 0 1 1 1 0 0 1 1 1 1 1 1 1 0 2 5 5 7 10 10 9 9 9 9 9 8 7 6 5 8 10 10 9 10 9 7 8 11 10 9 10 10 10 11 11 12 14 14 15 17 18 16
3 3 2 2 1 1 1 1 1 2 2 3 2 1 1 3 2 1 1 2 2 1 1 2 1 0 0 0 1 1 2 2 1 1 0 0 0 0 1 0 0 0 2 2 0 1 1 1 1 2 4 5 7 8 5 3 6 8 7 6 8 9 8 8 12 15 14 13 14 12 8 8 9 7 7 9 9 9 10 11 13 17 19 20 21 23 22
3 3 2 1 2 2 1 2 2 1 1 2 3 2 2 2 1 1 1 2 1 2 0 2 1 1 0 0 1 1 1 2 1 1 0 0 0 0 0 1 1 1 2 3 0 1 1 1 2 3 4 6 8 7 4 4 7 8 7 7 9 10 10 11 14 18 17 12 11 12 13 14 13 11 11 12 10 8 10 12 15 20 25 27 26 27 27
4 3 3 2 2 1 1 2 3 3 1 1 2 1 1 1 1 1 1 1 1 1 0 1 0 0 1 1 1 1 1 1 1 1 0 1 1 1 0 1 1 0 2 2 1 2 1 1 3 5 7 8 8 7 6 7 8 8 8 8 7 8 10 9 11 17 20 17 13 14 16 17 17 17 18 18 15 13 15 18 19 23 28 31 30 28 26
3 2 1 1 1 2 2 2 2 2 2 2 2 2 2 2 2 1 1 2 0 0 1 0 1 0 1 1 1 0 0 1 1 1 0 1 0 1 2 1 0 1 1 0 2 1 1 3 4 6 7 6 6 7 8 9 8 8 9 10 10 12 13 12 11 16 20 22 21 21 19 18 19 21 21 21 19 18 19 22 24 26 28 29 29 28 27
3 3 2 1 1 2 2 1 1 2 2 1 1 1 1 3 2 1 2 2 1 1 1 0 1 1 1 1 1 0 0 1 1 1 0 1 1 1 1 1 2 1 0 0 0 1 2 4 6 7 7 7 8 9 10 9 8 7 7 9 12 14 14 13 13 14 15 17 21 22 20 20 20 20 20 22 24 23 23 24 25 26 26 27 28 29 29
2 2 3 3 2 2 1 1 1 2 1 0 2 3 2 2 2 3 2 1 1 1 1 1 2 1 0 0 0 0 0 1 1 0 0 0 1 0 1 2 1 1 1 1 1 2 4 5 6 6 7 8 9 9 9 8 7 6 6 9 12 11 9 9 10 10 10 13 18 19 18 18 19 19 21 25 28 28 27 26 26 27 27 27 28 29 29
1 1 3 2 1 2 1 0 1 1 1 2 2 4 4 3 3 3 2 0 1 2 1 1 2 2 1 0 0 0 0 0 0 1 1 1 0 2 1 1 1 1 1 1 3 4 5 6 5 5 6 8 8 9 8 8 7 5 4 8 12 12 9 9 10 11 13 17 19 17 16 19 22 23 24 25 27 29 30 29 29 31 31 30 31 32 32
2 1 3 2 1 2 0 1 2 1 1 2 2 2 3 2 2 2 2 1 1 2 2 1 1 1 1 1 0 0 0 1 0 1 1 1 1 1 1 1 1 2 2 3 5 6 5 5 5 6 7 8 9 10 11 11 10 9 8 9 11 12 12 12 11 12 16 20 18 16 17 21 23 23 22 22 26 31 33 31 31 33 34 34 35 35 33
1 1 1 1 1 1 1 2 2 2 1 1 1 1 1 1 2 2 2 2 2 2 3 2 2 1 1 0 1 1 0 1 1 1 0 1 0 1 2 1 2 3 3 4 5 5 5 5 6 7 9 9 10 11 12 12 12 13 13 12 12 14 15 14 13 16 20 20 17 16 19 22 22 22 21 20 22 29 35 35 33 34 34 33 32 33 33
3 2 1 1 1 2 2 1 2 3 2 1 1 0 1 1 3 3 3 3 2 1 2 2 2 2 1 0 1 1 1 1 1 1 1 1 1 1 1 1 3 4 3 4 4 4 6 7 8 8 10 11 12 12 12 12 12 13 13 14 15 17 16 16 17 21 23 20 18 20 23 22 21 20 20 18 20 27 33 34 33 34 36 36 34 34 36
3 1 1 1 0 2 1 1 1 3 3 2 1 1 2 2 3 3 5 5 1 1 2 1 1 1 1 1 2 1 2 2 1 1 0 2 2 1 1 2 4 4 3 3 4 6 7 8 8 9 12 14 13 13 13 13 12 13 15 18 20 20 20 21 22 24 24 23 23 24 23 21 21 21 22 22 24 25 27 29 33 36 39 39 38 37 38
2 1 1 1 1 2 2 1 1 4 4 3 2 2 3 2 2 4 8 7 2 3 2 1 0 2 2 1 1 0 1 0 2 1 2 3 2 2 2 4 5 4 4 6 8 8 9 9 10 11 13 14 13 13 14 16 17 19 23 25 24 22 22 23 23 23 24 26 26 24 23 24 27 27 26 25 23 17 15 22 32 38 39 39 40 40 41
1 1 1 1 0 2 2 1 2 3 4 3 2 2 2 1 1 5 9 7 3 2 2 1 2 3 0 2 1 1 0 1 0 2 3 3 3 3 4 6 6 6 7 8 9 9 9 10 11 12 13 14 15 16 19 22 23 24 26 27 25 23 22 22 23 24 25 25 24 24 26 28 28 25 22 19 15 11 11 18 28 34 37 40 42 43 43
Wind_Direction
209 229 241 215 184 168 182 273 298 315 328 327 306 176 102 53 165 356 357 40 136 70 67 127 18 72 108 52 71 46 99 127 138 202 203 35 63 73 94 100 150 195 211 182 193 205 197 216 267 210 210 96 84 119 160 195 221 224 200 105 113 226 234 271 277 270 227 94 93 101 122 130 115 81 92 127 109 83 302 297 323 309 286 296 298 281 282
222 226 211 186 170 176 259 293 303 321 335 337 54 147 102 40 183 2 6 15 184 78 92 155 78 98 148 108 87 39 61 96 135 179 135 63 154 121 112 172 207 108 102 183 194 203 209 218 233 166 216 128 102 127 172 207 209 214 19 60 177 216 218 296 312 322 13 93 71 125 203 252 354 83 101 103 103 115 223 207 135 283 267 291 303 284 281
219 207 185 173 181 236 282 305 302 318 337 344 98 133 145 83 165 295 12 35 79 99 119 145 132 144 137 106 112 111 89 65 313 118 98 51 118 114 108 141 130 105 94 142 151 79 305 247 141 72 227 160 113 119 183 257 194 35 20 15 272 275 326 332 353 358 342 321 312 310 304 307 328 121 130 113 119 140 221 250 244 271 285 294 286 278 293
205 184 175 183 219 265 289 300 284 304 350 47 108 93 138 135 76 264 359 32 57 67 344 77 119 149 145 114 138 173 108 118 301 14 98 125 79 74 95 121 141 127 160 194 179 191 334 38 127 177 205 185 112 104 108 142 215 343 14 346 278 191 246 262 228 255 286 288 284 293 307 302 289 276 174 142 144 155 213 250 257 289 306 290 257 268 295
187 177 182 205 241 279 297 301 266 236 2 130 105 59 37 158 100 72 325 19 56 68 36 37 93 142 163 133 148 152 121 132 146 2 27 140 128 62 83 159 192 176 181 193 185 187 174 61 131 166 220 284 104 137 133 157 237 253 243 219 210 107 240 238 215 234 254 271 278 286 296 285 279 285 259 172 165 169 183 230 263 295 309 287 272 290 301
183 186 201 224 247 279 291 281 220 227 240 203 118 54 16 36 133 112 320 13 91 80 67 72 85 95 98 87 124 140 142 151 158 121 85 117 216 196 145 207 220 207 201 192 171 181 211 224 190 165 205 264 135 163 172 162 192 201 172 135 93 301 269 172 204 254 263 267 271 276 279 273 270 270 255 222 192 186 200 237 256 255 261 273 288 302 303
192 205 220 237 251 271 265 236 254 273 238 206 130 87 38 58 106 63 339 67 118 25 27 93 101 90 82 105 159 168 161 159 156 117 122 147 214 219 212 211 201 185 202 190 179 200 204 223 226 182 166 187 168 179 188 152 147 189 169 70 51 237 226 118 243 277 277 269 266 265 256 258 264 258 248 232 213 217 232 246 251 248 252 265 284 295 295
214 225 235 247 257 263 257 243 254 261 211 189 138 97 120 171 150 149 63 85 92 23 20 97 103 80 57 124 165 173 165 164 162 182 190 163 163 197 215 185 151 142 189 196 225 236 212 213 224 181 160 190 207 201 204 149 132 144 141 91 354 290 346 83 153 285 287 267 248 234 227 258 275 268 243 223 229 246 248 250 258 260 261 273 288 292 292
233 243 249 257 260 255 250 242 234 220 192 178 142 112 121 100 133 148 118 92 11 348 57 5 91 118 209 171 154 182 188 173 149 139 236 231 172 194 186 149 131 93 185 213 242 252 215 195 195 175 168 187 187 189 211 161 149 127 133 151 355 324 308 96 82 305 290 156 205 276 242 245 273 268 243 221 222 241 241 244 254 259 274 289 294 291 295
249 256 256 256 254 245 237 226 208 198 194 187 141 137 140 106 102 131 103 88 312 326 83 259 120 143 152 107 144 188 187 172 150 126 179 228 198 238 171 146 145 153 200 219 242 261 148 101 63 140 143 89 100 112 105 131 136 133 140 110 18 141 271 281 31 303 280 116 323 307 279 179 263 262 225 212 217 244 257 261 262 261 275 289 286 284 294
254 254 250 244 240 231 224 213 203 207 212 211 201 172 173 164 135 109 83 90 141 308 108 216 197 125 122 114 131 138 137 172 211 158 170 179 135 344 160 149 167 212 188 175 68 72 86 90 89 93 85 91 107 112 117 120 94 124 150 143 106 162 262 268 126 282 284 326 322 300 229 272 316 92 161 192 207 242 264 277 281 277 269 257 261 276 286
246 243 236 230 226 220 218 211 210 221 222 219 228 208 190 183 153 118 99 104 147 216 207 242 277 99 170 141 114 114 150 161 239 315 161 146 126 132 156 154 196 194 124 109 103 109 107 97 100 97 81 87 104 109 138 149 113 77 139 135 137 166 218 175 143 259 276 321 331 316 325 16 94 138 164 192 215 244 264 274 273 269 263 251 257 272 282
222 223 215 215 217 214 217 216 216 228 233 228 234 218 194 184 149 98 100 107 148 196 176 135 37 48 188 136 102 89 110 96 28 323 56 101 138 176 172 173 263 127 132 129 125 134 134 105 100 133 110 102 113 125 154 152 121 108 150 144 162 193 187 172 204 238 274 327 357 332 321 352 147 184 209 215 241 263 280 282 262 241 243 246 255 274 288
112 135 169 189 200 202 209 216 218 231 236 226 224 213 196 189 167 97 120 108 109 200 164 127 148 154 157 138 117 104 89 77 54 324 27 59 112 135 99 5 56 140 148 142 128 149 182 116 80 241 184 135 168 179 160 129 84 85 152 171 216 209 166 198 259 171 313 310 272 254 292 302 163 192 205 202 246 283 304 299 271 216 207 228 264 288 301
78 80 92 120 147 175 201 214 216 229 232 215 210 204 197 200 215 185 133 115 112 184 218 208 173 152 143 151 148 125 107 101 135 77 35 36 66 71 51 34 119 147 154 143 112 135 189 237 241 305 296 228 253 269 173 148 85 46 47 80 151 204 235 260 284 250 131 305 296 275 291 302 172 171 172 178 231 272 263 281 281 212 181 209 271 297 307
70 67 69 78 86 103 129 168 194 203 192 184 191 197 195 200 206 149 109 101 120 177 242 200 138 132 126 138 192 145 132 163 161 123 112 201 115 98 73 67 116 143 137 68 79 110 87 222 199 218 278 215 199 293 264 182 144 75 45 48 116 123 289 228 246 267 179 263 309 285 268 284 182 160 174 190 199 156 149 254 277 183 180 221 277 298 309
62 58 58 60 63 75 85 95 125 141 153 167 186 198 194 192 194 163 112 89 96 95 354 47 120 126 115 114 207 205 142 134 137 138 184 179 140 123 108 98 121 165 200 98 59 78 81 91 149 226 254 179 169 293 308 267 249 182 141 165 147 135 328 204 216 252 183 186 262 258 251 260 186 161 175 167 140 140 165 302 312 160 184 231 281 300 310
57 55 56 55 55 61 63 70 94 109 150 163 172 191 193 194 200 181 128 95 100 107 67 28 47 110 102 103 160 159 125 121 128 113 95 106 146 144 149 154 140 179 224 222 135 79 132 161 195 226 229 133 121 302 307 139 274 242 153 162 171 158 184 219 242 252 189 196 251 269 262 255 178 167 166 139 133 150 273 314 342 141 223 266 285 298 307
58 56 55 54 54 58 60 74 83 91 138 146 151 190 172 151 168 160 121 80 76 109 137 308 356 38 5 341 103 111 87 99 118 123 129 160 188 135 134 158 179 162 202 194 172 144 178 231 216 185 229 190 167 278 253 190 229 204 151 205 226 174 179 201 224 224 189 197 239 265 273 240 154 157 148 138 156 267 300 317 358 317 304 307 294 292 300
61 59 57 55 57 58 61 75 81 99 139 151 190 185 113 117 171 179 137 116 105 89 94 135 48 66 33 348 52 94 353 96 126 160 157 150 172 151 138 187 197 158 160 185 191 186 194 211 179 173 222 217 154 189 260 257 246 197 179 238 218 165 189 231 207 187 188 215 244 286 311 209 157 152 138 168 220 281 320 320 303 287 285 293 290 283 284
61 60 57 55 58 59 61 67 69 94 147 163 192 114 92 85 96 120 140 135 122 106 143 142 105 88 71 46 40 39 24 65 91 185 137 98 170 188 181 194 174 165 174 176 168 191 194 176 141 179 223 98 142 208 246 273 282 305 112 247 217 182 193 248 233 189 185 230 234 265 348 147 171 182 211 223 229 277 327 280 278 268 252 275 285 275 266
59 58 57 55 57 60 62 67 69 75 111 136 171 126 103 98 99 102 110 100 88 85 109 115 98 86 79 68 52 40 51 73 44 33 110 106 259 247 166 175 178 182 171 145 120 244 169 150 145 176 193 171 179 214 232 249 286 331 124 215 224 197 187 263 263 207 211 257 254 248 17 154 182 206 243 252 239 206 199 234 260 268 250 245 270 275 269
58 57 58 58 61 64 64 67 67 65 70 79 157 151 128 118 110 106 106 96 86 83 97 101 93 82 67 48 32 26 40 91 84 48 66 91 147 197 226 223 179 144 155 190 300 278 160 158 145 153 200 194 165 160 219 236 256 269 214 226 241 208 136 125 253 232 279 276 259 249 265 263 228 211 231 245 228 196 196 218 238 250 242 228 249 268 266
58 56 57 59 64 67 68 70 70 68 69 70 83 121 123 119 114 107 103 98 94 94 88 77 80 83 43 16 17 13 14 75 111 120 231 135 155 201 236 205 168 146 185 183 110 80 114 140 83 315 243 208 159 162 237 242 226 198 200 252 255 190 155 200 228 214 299 273 238 212 243 259 245 205 209 225 223 210 203 215 231 237 232 224 227 243 251
59 56 55 58 62 65 67 68 67 69 72 77 90 109 114 114 111 105 98 101 119 127 101 69 19 12 351 351 9 5 358 41 102 207 245 201 204 236 177 148 156 135 101 125 135 112 91 104 119 200 234 224 203 205 231 250 209 175 207 250 254 144 162 213 228 212 226 259 268 258 254 250 229 215 222 225 221 211 204 212 225 227 222 215 207 213 231
61 57 56 59 62 66 68 68 68 70 76 84 92 99 104 101 90 81 94 104 105 99 102 121 331 348 44 54 27 13 10 34 70 97 35 102 176 181 149 128 122 112 97 87 88 114 88 93 127 195 209 234 255 229 218 263 268 219 239 243 99 107 166 205 221 229 249 269 275 273 273 262 232 218 224 225 212 203 203 208 213 214 216 211 204 207 218
61 61 64 68 70 71 71 71 71 70 69 78 89 96 102 94 77 68 85 97 84 52 98 124 300 332 107 86 35 19 24 36 59 88 79 118 145 149 150 146 134 114 99 74 57 94 97 95 193 214 214 289 312 218 243 295 319 257 255 227 132 152 202 191 183 251 260 259 244 228 274 279 254 207 208 212 198 192 200 205 208 216 219 214 215 218 216
62 65 71 72 68 63 61 64 68 67 65 70 81 89 89 75 59 52 52 52 82 111 108 114 140 141 126 75 13 6 17 29 39 58 63 82 122 145 155 151 139 102 99 98 115 121 132 201 198 168 158 295 233 198 212 9 254 257 251 204 175 198 206 176 182 233 252 250 207 175 227 269 274 197 191 193 181 187 204 211 215 219 212 203 213 229 227
63 63 60 42 17 356 341 334 347 37 57 72 79 81 78 67 56 56 59 64 92 107 102 92 111 116 108 14 5 0 9 37 42 59 79 76 90 133 146 137 129 121 96 82 118 157 161 178 179 178 207 222 219 228 238 188 226 254 235 181 184 208 209 191 204 236 259 274 229 180 213 250 250 172 185 183 177 191 209 216 215 213 204 197 206 221 230
62 60 53 39 28 16 0 330 278 258 240 200 152 62 67 54 41 49 61 71 94 106 107 108 115 95 315 329 7 1 18 74 70 71 86 85 88 114 131 128 125 122 98 73 219 212 152 162 197 239 258 226 194 226 236 185 246 268 247 192 196 217 221 218 225 236 251 284 77 176 231 258 149 164 199 192 186 195 209 216 209 200 192 192 201 215 223
62 60 55 49 48 48 45 42 46 162 202 207 221 54 79 49 27 46 64 73 87 100 98 94 101 54 326 268 290 347 10 27 244 85 107 116 97 96 116 136 148 174 183 93 107 177 177 194 179 172 205 191 160 209 212 171 260 271 255 214 201 215 221 227 234 239 247 273 67 23 267 245 154 196 231 207 197 199 206 209 201 191 188 192 201 215 219
65 60 56 52 51 52 53 55 62 82 107 106 96 96 109 110 73 56 57 59 78 105 104 89 89 316 320 300 266 324 356 327 261 256 208 179 101 74 104 149 174 203 173 112 110 204 178 196 193 162 168 142 103 146 216 197 237 255 255 239 207 212 226 233 238 244 243 199 142 251 266 233 201 215 225 195 187 194 201 201 189 182 186 193 204 216 219
78 71 65 62 58 58 63 67 72 82 88 86 84 84 85 86 78 54 48 63 78 86 90 90 96 102 332 292 264 324 341 312 241 321 201 162 44 345 235 145 174 199 170 148 198 190 117 148 175 145 112 69 91 166 234 228 231 244 258 264 242 211 226 242 245 246 241 203 187 224 252 246 202 213 214 177 175 188 194 186 170 167 179 194 206 215 215
94 84 72 66 60 57 63 70 76 83 85 81 78 76 75 75 67 49 49 112 96 71 66 83 120 138 346 341 203 352 359 310 247 339 16 35 11 348 209 120 19 187 179 188 198 148 139 184 176 164 161 108 106 234 254 250 245 246 258 265 257 228 239 267 256 242 233 213 207 227 248 334 88 174 192 180 179 182 179 172 167 172 189 206 214 214 209
97 96 81 60 44 35 39 52 66 77 78 76 77 79 79 76 66 56 53 67 86 62 40 43 80 117 22 342 309 324 10 20 74 346 278 347 6 13 178 266 325 201 156 5 172 178 193 155 155 187 179 122 193 230 239 249 252 251 250 253 246 197 195 248 249 239 229 215 216 232 238 207 196 207 194 187 186 179 176 182 185 187 200 216 218 211 205
74 126 114 24 5 355 5 29 36 49 65 72 81 83 78 78 68 58 54 52 53 71 129 76 63 115 118 317 285 304 353 4 112 315 303 320 4 20 65 60 282 191 69 54 212 226 63 104 151 217 177 189 225 227 223 234 250 253 251 247 224 185 211 239 248 244 227 210 218 230 225 218 228 230 208 199 195 182 185 197 196 196 211 224 220 207 203
36 263 263 304 334 352 22 34 39 58 79 87 92 75 64 75 77 52 45 42 41 48 74 108 108 112 108 287 288 341 345 327 280 352 334 287 302 329 34 56 281 292 28 351 253 162 84 84 201 235 223 225 239 246 240 240 245 250 257 260 246 211 226 239 209 127 158 255 245 241 235 235 241 237 220 216 206 190 196 206 201 198 209 217 211 204 206
51 25 323 325 5 30 24 19 36 72 71 53 59 44 28 27 42 36 17 10 18 27 47 81 99 95 81 261 308 1 357 321 329 1 350 228 308 330 22 118 338 320 291 273 268 82 93 174 219 255 252 256 267 269 257 247 245 246 252 258 257 235 225 212 172 175 203 244 246 231 219 229 240 234 222 220 213 200 204 211 206 202 206 212 214 213 208
35 10 1 27 64 109 174 7 35 328 330 340 348 9 1 13 34 27 339 345 7 8 21 56 105 158 162 238 322 19 34 32 330 340 22 104 305 313 310 278 43 14 308 285 79 73 277 272 352 288 277 272 268 263 254 246 249 250 247 249 252 243 226 204 195 198 206 229 240 228 202 210 227 225 213 213 216 212 212 213 209 207 210 215 218 214 206
34 32 25 29 60 108 101 13 328 283 305 348 12 32 16 24 41 35 336 19 25 337 355 55 102 185 35 353 279 350 37 32 312 287 336 135 187 27 2 321 27 355 288 277 63 63 302 295 302 282 272 258 256 265 274 268 258 255 249 252 257 249 234 223 222 221 226 243 255 253 236 223 227 223 207 204 208 211 212 210 209 211 212 214 214 212 210
39 49 52 67 105 110 77 26 10 12 44 32 31 40 37 12 6 27 52 41 351 286 310 80 66 298 2 93 236 260 30 36 44 113 108 346 11 85 267 288 345 2 262 259 292 61 35 288 267 259 254 252 260 276 294 281 269 268 260 253 252 247 241 238 236 233 233 241 255 256 246 235 230 226 215 207 203 205 208 208 209 211 212 211 213 214 215
71 69 72 92 109 113 32 24 23 30 57 58 29 27 356 336 1 20 33 29 294 276 284 95 107 251 145 141 210 256 356 28 48 91 93 318 341 112 172 340 12 315 245 254 31 57 35 279 264 254 253 259 268 281 285 275 275 278 268 255 248 239 235 237 240 238 236 236 242 249 246 235 228 226 220 212 207 209 211 209 208 209 210 212 214 215 214
41 18 14 66 31 5 9 16 22 42 68 54 39 22 332 340 20 30 308 296 268 251 289 135 139 152 106 95 85 11 10 12 28 82 63 308 315 63 52 36 10 245 250 352 61 78 231 241 239 247 262 278 286 286 281 275 276 281 278 275 272 260 248 243 247 249 246 242 242 247 247 239 232 231 226 216 210 209 211 211 209 209 209 210 212 213 213
308 327 9 49 7 4 7 332 350 55 59 15 61 116 326 328 339 222 267 283 240 223 269 125 148 194 255 39 56 13 327 23 68 87 32 327 14 60 65 238 238 246 330 353 63 237 249 245 241 251 272 291 292 288 286 285 285 288 288 288 283 270 256 248 251 254 252 247 244 244 245 242 238 235 228 220 215 212 212 212 211 209 208 207 208 211 212
301 341 31 33 347 344 13 315 333 32 66 216 170 159 181 269 252 218 232 251 179 179 222 126 126 141 207 5 67 244 315 33 35 254 267 2 14 259 224 239 265 33 38 288 279 272 264 259 254 255 264 273 279 286 292 295 294 294 298 297 290 276 254 243 248 251 251 250 247 243 241 239 236 231 226 223 220 217 215 213 210 207 204 202 205 209 210
106 77 70 75 311 317 61 85 334 354 166 199 194 179 185 208 219 214 222 220 130 159 189 173 126 120 137 168 63 11 27 43 295 233 121 85 276 250 229 222 334 19 17 275 264 251 247 252 259 268 275 283 294 301 302 300 297 291 285 290 291 287 274 259 255 254 256 256 253 248 242 240 236 232 230 228 225 221 219 217 214 208 202 200 204 208 208
101 75 83 106 293 327 22 190 232 247 204 201 205 193 191 213 241 241 229 207 153 143 143 118 88 106 149 164 162 229 51 74 74 249 184 133 216 269 20 39 252 220 198 229 245 246 248 260 281 296 302 309 315 313 308 306 306 301 290 283 285 290 288 278 264 259 261 260 256 250 247 244 240 235 232 230 227 223 220 218 215 211 206 206 210 210 206
140 86 81 149 220 234 212 222 282 312 287 182 212 243 207 211 255 250 218 188 157 137 139 139 131 133 149 110 135 198 228 85 185 235 195 116 207 308 8 337 264 242 209 216 234 248 267 287 304 315 316 316 315 312 310 310 309 306 302 298 294 294 293 289 281 273 269 264 257 252 249 246 242 237 233 232 231 228 223 218 214 210 207 208 210 208 203
104 103 91 110 165 195 196 183 338 321 299 198 185 244 179 208 249 237 183 159 160 167 157 149 146 160 198 338 67 117 211 226 204 207 16 17 226 214 178 239 264 264 239 221 230 258 284 302 315 317 311 310 310 308 307 307 306 304 303 301 298 297 296 292 287 283 279 271 261 256 254 252 247 241 235 233 235 234 227 219 213 210 208 208 207 204 202
73 96 138 129 227 259 254 66 356 310 303 309 299 239 184 221 259 217 171 163 155 84 95 73 56 121 129 16 28 17 257 240 154 107 315 241 210 177 183 232 238 238 237 253 276 288 295 306 315 311 307 308 308 306 306 307 307 305 304 302 299 298 294 290 288 287 285 279 271 266 263 258 250 242 238 238 241 239 230 219 214 213 212 211 208 205 204
24 36 70 106 223 229 202 135 297 283 280 284 271 216 177 203 261 192 166 158 121 73 109 203 20 66 55 1 351 295 272 244 113 126 252 236 187 150 190 229 238 252 278 295 303 307 310 313 313 310 309 308 306 306 307 306 304 303 302 301 300 298 295 291 290 288 286 283 280 274 266 260 256 252 250 250 248 244 233 224 219 216 214 212 211 209 208
24 339 324 338 11 153 151 149 267 261 255 260 250 195 181 249 247 161 153 149 131 125 183 184 89 81 135 248 218 144 49 7 340 274 266 242 195 186 211 239 267 295 308 306 305 306 307 305 303 303 305 305 306 307 306 304 303 302 300 299 299 299 296 293 292 290 289 288 285 277 270 269 267 262 255 248 241 232 230 231 225 218 214 214 214 213 212